When you browse on this site, cookies collect data to enhance your experience and personalize the content and advertising you see.
Visit our Privacy Policy to learn more. By continuing to use the site, you agree to this use of cookies and data.
  • In Slovakia
  • List of Countries
  • For 7 days
  • Water Temperature
  • Satellite Maps
  • Weather Map
  • Weather Widgets
  • user-avatar
    Login

    Hourly Weather Konstantyna

    Today, 19 February, Tuesday

    Time Temperature Precipitation Wind Pressure Humidity
    00:00 +6°C° 0 mm 2 mps 711 mmHg 54%
    01:00 +6°C° 0 mm 2 mps 711 mmHg 55%
    02:00 +5°C° 0 mm 2 mps 711 mmHg 56%
    03:00 +5°C° 0 mm 2 mps 711 mmHg 57%
    04:00 +5°C° 0 mm 2 mps 711 mmHg 59%
    05:00 +4°C° 0 mm 2 mps 711 mmHg 62%
    06:00 +4°C° 0 mm 2 mps 710 mmHg 64%
    07:00 +6°C° 0 mm 2 mps 711 mmHg 59%
    08:00 +8°C° 0 mm 2 mps 711 mmHg 54%
    09:00 +10°C° 0 mm 2 mps 712 mmHg 49%
    10:00 +12°C° 0 mm 2 mps 712 mmHg 43%
    11:00 +14°C° 0 mm 2 mps 712 mmHg 38%
    12:00 +15°C° 0 mm 2 mps 712 mmHg 33%
    13:00 +15°C° 0 mm 1 mps 711 mmHg 32%
    14:00 +16°C° 0 mm 1 mps 711 mmHg 30%
    15:00 +15°C° 0 mm 0 mps 711 mmHg 29%
    16:00 +14°C° 0 mm 1 mps 710 mmHg 40%
    17:00 +12°C° 0 mm 1 mps 710 mmHg 50%
    18:00 +8°C° 0 mm 2 mps 710 mmHg 61%
    19:00 +9°C° 0 mm 1 mps 710 mmHg 68%
    20:00 +8°C° 0 mm 1 mps 710 mmHg 74%
    21:00 +7°C° 0 mm 1 mps 711 mmHg 81%
    22:00 +7°C° 0 mm 1 mps 711 mmHg 82%
    23:00 +7°C° 0 mm 1 mps 711 mmHg 83%

    Tomorrow, 20 February, Wednesday

    Time Temperature Precipitation Wind Pressure Humidity
    00:00 +5°C° 0 mm 0 mps 711 mmHg 83%
    01:00 +5°C° 0 mm 0 mps 710 mmHg 82%
    02:00 +5°C° 0 mm 0 mps 710 mmHg 81%
    03:00 +5°C° 0 mm 0 mps 710 mmHg 80%
    04:00 +5°C° 0 mm 0 mps 710 mmHg 79%
    05:00 +5°C° 0 mm 0 mps 710 mmHg 78%
    06:00 +4°C° 0 mm 0 mps 710 mmHg 77%
    07:00 +7°C° 0 mm 0 mps 711 mmHg 69%
    08:00 +9°C° 0 mm 0 mps 712 mmHg 62%
    09:00 +11°C° 0 mm 0 mps 713 mmHg 54%
    10:00 +13°C° 0 mm 1 mps 713 mmHg 51%
    11:00 +14°C° 0 mm 2 mps 713 mmHg 48%
    12:00 +15°C° 0 mm 2 mps 713 mmHg 45%
    13:00 +14°C° 0 mm 3 mps 713 mmHg 48%
    14:00 +14°C° 0 mm 3 mps 712 mmHg 50%
    15:00 +14°C° 0 mm 4 mps 712 mmHg 53%
    16:00 +12°C° 0 mm 3 mps 712 mmHg 65%
    17:00 +10°C° 0 mm 3 mps 712 mmHg 77%
    18:00 +8°C° 0 mm 2 mps 713 mmHg 89%
    19:00 +8°C° 0 mm 2 mps 713 mmHg 91%
    20:00 +8°C° 0 mm 1 mps 713 mmHg 93%
    21:00 +7°C° 0 mm 1 mps 714 mmHg 94%
    22:00 +6°C° 0 mm 0 mps 714 mmHg 94%
    23:00 +6°C° 0 mm 0 mps 714 mmHg 93%

    Day after tomorrow, 21 February, Thursday

    Time Temperature Precipitation Wind Pressure Humidity
    00:00 +6°C° 0 mm 0 mps 714 mmHg 93%
    01:00 +5°C° 0 mm 0 mps 714 mmHg 92%
    02:00 +5°C° 0 mm 0 mps 714 mmHg 91%
    03:00 +5°C° 0 mm 0 mps 714 mmHg 91%
    04:00 +5°C° 0 mm 0 mps 714 mmHg 90%
    05:00 +5°C° 0 mm 0 mps 714 mmHg 89%
    06:00 +4°C° 0 mm 0 mps 715 mmHg 88%
    07:00 +6°C° 0 mm 0 mps 715 mmHg 81%
    08:00 +8°C° 0 mm 0 mps 716 mmHg 74%
    09:00 +10°C° 0 mm 0 mps 717 mmHg 68%
    10:00 +13°C° 0 mm 1 mps 717 mmHg 63%
    11:00 +14°C° 0 mm 1 mps 717 mmHg 58%
    12:00 +15°C° 0 mm 2 mps 717 mmHg 53%
    13:00 +15°C° 0 mm 2 mps 717 mmHg 54%
    14:00 +15°C° 0 mm 2 mps 717 mmHg 55%
    15:00 +14°C° 0 mm 3 mps 717 mmHg 55%
    16:00 +12°C° 0 mm 3 mps 717 mmHg 66%
    17:00 +12°C° 0 mm 2 mps 717 mmHg 77%
    18:00 +9°C° 0 mm 2 mps 717 mmHg 87%
    19:00 +9°C° 0 mm 1 mps 717 mmHg 90%
    20:00 +8°C° 0 mm 1 mps 718 mmHg 93%
    21:00 +7°C° 0 mm 0 mps 718 mmHg 96%
    22:00 +6°C° 0 mm 0 mps 718 mmHg 96%
    23:00 +6°C° 0 mm 0 mps 718 mmHg 96%

    22 February, Friday

    Time Temperature Precipitation Wind Pressure Humidity
    00:00 +6°C° 0 mm 0 mps 718 mmHg 96%
    01:00 +6°C° 0 mm 0 mps 718 mmHg 96%
    02:00 +5°C° 0 mm 0 mps 718 mmHg 95%
    03:00 +5°C° 0 mm 0 mps 718 mmHg 95%
    04:00 +5°C° 0 mm 0 mps 718 mmHg 95%
    05:00 +4°C° 0 mm 0 mps 718 mmHg 94%
    06:00 +5°C° 0 mm 1 mps 718 mmHg 94%
    07:00 +7°C° 0 mm 1 mps 718 mmHg 86%
    08:00 +9°C° 0 mm 1 mps 719 mmHg 79%
    09:00 +11°C° 0 mm 1 mps 719 mmHg 71%
    10:00 +12°C° 0 mm 1 mps 719 mmHg 64%
    11:00 +13°C° 0 mm 2 mps 719 mmHg 56%
    12:00 +14°C° 0 mm 2 mps 719 mmHg 49%
    13:00 +13°C° 0 mm 3 mps 718 mmHg 51%
    14:00 +13°C° 0 mm 3 mps 718 mmHg 54%
    15:00 +13°C° 0 mm 4 mps 717 mmHg 56%
    16:00 +12°C° 0 mm 3 mps 717 mmHg 67%
    17:00 +10°C° 0 mm 3 mps 717 mmHg 78%
    18:00 +8°C° 0 mm 2 mps 717 mmHg 89%
    19:00 +8°C° 0 mm 1 mps 717 mmHg 92%
    20:00 +8°C° 0 mm 1 mps 717 mmHg 94%
    21:00 +6°C° 0 mm 0 mps 717 mmHg 96%
    22:00 +5°C° 0 mm 0 mps 717 mmHg 96%
    23:00 +5°C° 0 mm 0 mps 717 mmHg 96%

    23 February, Saturday

    Time Temperature Precipitation Wind Pressure Humidity
    00:00 +4°C° 0 mm 0 mps 717 mmHg 96%
    01:00 +4°C° 0 mm 0 mps 716 mmHg 96%
    02:00 +4°C° 0 mm 0 mps 716 mmHg 95%
    03:00 +3°C° 0 mm 0 mps 716 mmHg 95%
    04:00 +3°C° 0 mm 0 mps 716 mmHg 94%
    05:00 +3°C° 0 mm 0 mps 716 mmHg 93%
    06:00 +3°C° 0 mm 0 mps 716 mmHg 92%
    07:00 +6°C° 0 mm 1 mps 717 mmHg 85%
    08:00 +8°C° 0 mm 1 mps 717 mmHg 77%
    09:00 +10°C° 0 mm 1 mps 718 mmHg 69%
    10:00 +10°C° 0 mm 2 mps 718 mmHg 65%
    11:00 +13°C° 0 mm 2 mps 718 mmHg 60%
    12:00 +13°C° 0 mm 3 mps 718 mmHg 55%
    13:00 +13°C° 0 mm 4 mps 717 mmHg 57%
    14:00 +13°C° 0 mm 4 mps 717 mmHg 58%
    15:00 +13°C° 0 mm 4 mps 717 mmHg 60%
    16:00 +11°C° 0 mm 3 mps 717 mmHg 69%
    17:00 +9°C° 0 mm 3 mps 717 mmHg 79%
    18:00 +7°C° 0 mm 2 mps 716 mmHg 88%
    19:00 +8°C° 0 mm 1 mps 717 mmHg 90%
    20:00 +7°C° 0 mm 1 mps 717 mmHg 92%
    21:00 +6°C° 0 mm 1 mps 717 mmHg 94%
    22:00 +6°C° 0 mm 1 mps 717 mmHg 94%
    23:00 +5°C° 0 mm 1 mps 717 mmHg 93%

    24 February, Sunday

    Time Temperature Precipitation Wind Pressure Humidity
    00:00 +5°C° 0 mm 1 mps 716 mmHg 93%
    01:00 +5°C° 0 mm 1 mps 716 mmHg 92%
    02:00 +5°C° 0 mm 1 mps 716 mmHg 90%
    03:00 +4°C° 0 mm 1 mps 716 mmHg 89%
    04:00 +4°C° 0 mm 1 mps 716 mmHg 88%
    05:00 +4°C° 0 mm 1 mps 716 mmHg 87%
    06:00 +4°C° 0 mm 1 mps 716 mmHg 87%
    07:00 +6°C° 0 mm 1 mps 716 mmHg 80%
    08:00 +7°C° 0 mm 2 mps 717 mmHg 73%
    09:00 +10°C° 0 mm 2 mps 718 mmHg 66%
    10:00 +11°C° 0 mm 3 mps 718 mmHg 60%
    11:00 +12°C° 0 mm 4 mps 718 mmHg 55%
    12:00 +14°C° 0 mm 5 mps 718 mmHg 49%
    13:00 +14°C° 0 mm 5 mps 717 mmHg 50%
    14:00 +13°C° 0 mm 5 mps 717 mmHg 51%
    15:00 +13°C° 0 mm 5 mps 717 mmHg 51%
    16:00 +11°C° 0 mm 4 mps 717 mmHg 62%
    17:00 +9°C° 0 mm 3 mps 717 mmHg 73%
    18:00 +7°C° 0 mm 2 mps 717 mmHg 83%
    19:00 +6°C° 0 mm 2 mps 717 mmHg 87%
    20:00 +7°C° 0 mm 1 mps 717 mmHg 91%
    21:00 +6°C° 0 mm 1 mps 717 mmHg 94%
    22:00 +6°C° 0 mm 1 mps 717 mmHg 95%
    23:00 +6°C° 0 mm 1 mps 717 mmHg 95%
    Show more